| time (UTC) | temp F | wind direction | speed MPH | gust MPH | rain 1hr in | rain 24hr in | rain mn in | humidity % | barometer mb |
| 20260507234530 | 48 | 96 | 0.0 | 1.0 | 0.00 | 0.12 | 0.00 | 84 | 1013.8 |
| 20260507234008 | 49 | 96 | 0.0 | 1.0 | 0.00 | 0.12 | 0.00 | 85 | 1013.8 |
| 20260507233506 | 49 | 123 | 0.0 | 1.0 | 0.00 | 0.12 | 0.00 | 85 | 1013.8 |
| 20260507233015 | 49 | 121 | 0.0 | 1.0 | 0.00 | 0.12 | 0.00 | 84 | 1013.8 |
| 20260507232507 | 49 | 122 | 0.0 | 1.0 | 0.00 | 0.12 | 0.00 | 84 | 1013.8 |
| 20260507232013 | 49 | 122 | 0.0 | 1.0 | 0.00 | 0.12 | 0.00 | 84 | 1013.7 |
| 20260507231522 | 49 | 133 | 0.0 | 2.0 | 0.00 | 0.12 | 0.00 | 84 | 1013.7 |
| 20260507231007 | 49 | 99 | 0.0 | 2.0 | 0.00 | 0.12 | 0.00 | 84 | 1013.8 |
| 20260507230507 | 49 | 113 | 0.0 | 1.0 | 0.00 | 0.12 | 0.00 | 83 | 1013.8 |
| 20260507230036 | 50 | 137 | 0.0 | 1.0 | 0.00 | 0.12 | 0.00 | 84 | 1013.8 |
| 20260507225510 | 49 | 118 | 0.0 | 1.0 | 0.00 | 0.12 | 0.00 | 84 | 1013.8 |
| 20260507225008 | 49 | 92 | 0.0 | 1.0 | 0.00 | 0.12 | 0.00 | 84 | 1013.8 |
| 20260507224532 | 49 | 109 | 0.0 | 1.0 | 0.00 | 0.12 | 0.00 | 84 | 1013.8 |
| 20260507224009 | 50 | 84 | 0.0 | 1.0 | 0.00 | 0.12 | 0.00 | 84 | 1013.8 |
| 20260507223509 | 49 | 83 | 0.0 | 1.0 | 0.00 | 0.12 | 0.00 | 85 | 1013.9 |
| 20260507223052 | 49 | 82 | 0.0 | 1.0 | 0.00 | 0.12 | 0.00 | 85 | 1013.8 |
| 20260507222510 | 50 | 107 | 0.0 | 1.0 | 0.00 | 0.12 | 0.00 | 85 | 1013.7 |
| 20260507222007 | 50 | 107 | 0.0 | 2.0 | 0.00 | 0.12 | 0.00 | 85 | 1013.8 |
| 20260507221516 | 50 | 131 | 0.0 | 2.0 | 0.00 | 0.12 | 0.00 | 86 | 1013.7 |
| 20260507221009 | 49 | 77 | 0.0 | 1.0 | 0.00 | 0.12 | 0.00 | 86 | 1013.7 |
| 20260507220505 | 49 | 91 | 0.0 | 1.0 | 0.00 | 0.12 | 0.00 | 87 | 1013.8 |
| 20260507220025 | 49 | 93 | 0.0 | 1.0 | 0.00 | 0.12 | 0.00 | 87 | 1013.8 |
| 20260507215509 | 50 | 107 | 0.0 | 1.0 | 0.00 | 0.12 | 0.12 | 87 | 1013.8 |
| 20260507215006 | 50 | 107 | 0.0 | 1.0 | 0.00 | 0.12 | 0.12 | 87 | 1013.8 |
| 20260507214525 | 50 | 81 | 0.0 | 2.0 | 0.00 | 0.12 | 0.12 | 87 | 1013.9 |
| 20260507214008 | 50 | 84 | 0.0 | 2.0 | 0.00 | 0.12 | 0.12 | 88 | 1013.9 |
| 20260507213506 | 50 | 116 | 0.0 | 2.0 | 0.00 | 0.12 | 0.12 | 88 | 1013.9 |
| 20260507213008 | 49 | 96 | 0.0 | 1.0 | 0.00 | 0.12 | 0.12 | 88 | 1014.0 |
| 20260507212503 | 49 | 97 | 0.0 | 1.0 | 0.00 | 0.12 | 0.12 | 88 | 1014.0 |
| 20260507212010 | 49 | 91 | 0.0 | 2.0 | 0.00 | 0.12 | 0.12 | 88 | 1014.0 |
| 20260507211512 | 49 | 110 | 1.0 | 2.0 | 0.00 | 0.12 | 0.12 | 89 | 1014.1 |
| 20260507211006 | 49 | 100 | 0.0 | 1.0 | 0.00 | 0.12 | 0.12 | 88 | 1014.0 |
| 20260507210512 | 49 | 103 | 0.0 | 1.0 | 0.00 | 0.12 | 0.12 | 88 | 1014.0 |
| 20260507210019 | 49 | 122 | 0.0 | 1.0 | 0.00 | 0.12 | 0.12 | 88 | 1013.9 |
| 20260507205507 | 49 | 85 | 0.0 | 1.0 | 0.00 | 0.12 | 0.12 | 88 | 1013.9 |
| 20260507205008 | 49 | 94 | 0.0 | 1.0 | 0.00 | 0.12 | 0.12 | 88 | 1013.9 |
| 20260507204504 | 49 | 109 | 0.0 | 1.0 | 0.00 | 0.12 | 0.12 | 88 | 1014.0 |
| 20260507204002 | 50 | 93 | 0.0 | 1.0 | 0.00 | 0.12 | 0.12 | 88 | 1014.0 |
| 20260507203503 | 50 | 86 | 0.0 | 1.0 | 0.00 | 0.12 | 0.12 | 88 | 1014.0 |
| 20260507203019 | 50 | 88 | 0.0 | 1.0 | 0.00 | 0.12 | 0.12 | 88 | 1014.0 |
| 20260507202502 | 50 | 94 | 0.0 | 1.0 | 0.00 | 0.12 | 0.12 | 89 | 1013.8 |
| 20260507202006 | 50 | 343 | 0.0 | 0.0 | 0.00 | 0.12 | 0.12 | 89 | 1013.8 |
| 20260507201509 | 50 | 340 | 0.0 | 0.0 | 0.00 | 0.12 | 0.12 | 88 | 1013.6 |
| 20260507201006 | 50 | 341 | 0.0 | 0.0 | 0.00 | 0.12 | 0.12 | 88 | 1013.6 |
| 20260507200503 | 51 | 340 | 0.0 | 0.0 | 0.00 | 0.12 | 0.12 | 86 | 1013.6 |
| 20260507200020 | 51 | 341 | 0.0 | 0.0 | 0.00 | 0.12 | 0.12 | 85 | 1013.6 |
| 20260507195506 | 51 | 340 | 0.0 | 0.0 | 0.00 | 0.12 | 0.12 | 85 | 1013.5 |
| 20260507195008 | 52 | 340 | 0.0 | 0.0 | 0.00 | 0.12 | 0.12 | 85 | 1013.5 |
| 20260507194517 | 52 | 340 | 0.0 | 0.0 | 0.00 | 0.12 | 0.12 | 84 | 1013.4 |
| 20260507194008 | 52 | 340 | 0.0 | 0.0 | 0.00 | 0.12 | 0.12 | 83 | 1013.4 |
| 20260507193508 | 52 | 341 | 0.0 | 0.0 | 0.00 | 0.12 | 0.12 | 82 | 1013.3 |
| 20260507193039 | 52 | 340 | 0.0 | 1.0 | 0.00 | 0.12 | 0.12 | 82 | 1013.3 |
| 20260507192503 | 53 | 340 | 0.0 | 1.0 | 0.00 | 0.12 | 0.12 | 81 | 1013.3 |
| 20260507192003 | 53 | 340 | 0.0 | 0.0 | 0.00 | 0.12 | 0.12 | 81 | 1013.2 |
| 20260507191507 | 53 | 340 | 0.0 | 1.0 | 0.00 | 0.12 | 0.12 | 80 | 1013.3 |
| 20260507191003 | 53 | 340 | 0.0 | 1.0 | 0.00 | 0.12 | 0.12 | 80 | 1013.2 |
| 20260507190503 | 53 | 331 | 0.0 | 1.0 | 0.00 | 0.12 | 0.12 | 80 | 1013.2 |
| 20260507190011 | 54 | 342 | 0.0 | 1.0 | 0.00 | 0.12 | 0.12 | 79 | 1013.2 |
| 20260507185503 | 54 | 358 | 0.0 | 0.0 | 0.00 | 0.12 | 0.12 | 78 | 1013.3 |
| 20260507185003 | 54 | 358 | 0.0 | 1.0 | 0.00 | 0.12 | 0.12 | 76 | 1013.4 |
| 20260507184516 | 54 | 358 | 0.0 | 1.0 | 0.00 | 0.12 | 0.12 | 75 | 1013.4 |
| 20260507184006 | 54 | 358 | 0.0 | 1.0 | 0.00 | 0.12 | 0.12 | 75 | 1013.3 |
| 20260507183509 | 55 | 358 | 0.0 | 2.0 | 0.00 | 0.12 | 0.12 | 75 | 1013.2 |
| 20260507183034 | 55 | 18 | 0.0 | 2.0 | 0.00 | 0.12 | 0.12 | 74 | 1013.2 |
| 20260507182509 | 55 | 21 | 0.0 | 3.0 | 0.00 | 0.13 | 0.12 | 75 | 1013.1 |
| 20260507182009 | 56 | 356 | 1.0 | 3.0 | 0.00 | 0.13 | 0.12 | 74 | 1013.2 |
| 20260507181523 | 57 | 354 | 1.0 | 2.0 | 0.00 | 0.13 | 0.12 | 74 | 1013.1 |
| 20260507181016 | 57 | 350 | 0.0 | 1.0 | 0.00 | 0.13 | 0.12 | 74 | 1013.1 |
| 20260507180507 | 56 | 16 | 0.0 | 1.0 | 0.00 | 0.13 | 0.12 | 76 | 1013.1 |
| 20260507180008 | 55 | 331 | 0.0 | 2.0 | 0.00 | 0.13 | 0.12 | 76 | 1013.1 |
| 20260507175503 | 55 | 328 | 1.0 | 2.0 | 0.00 | 0.13 | 0.12 | 75 | 1013.2 |
| 20260507175004 | 55 | 331 | 1.0 | 2.0 | 0.00 | 0.14 | 0.12 | 76 | 1013.2 |
| 20260507174517 | 55 | 6 | 0.0 | 2.0 | 0.00 | 0.14 | 0.12 | 77 | 1013.2 |
| 20260507174003 | 56 | 41 | 0.0 | 2.0 | 0.00 | 0.18 | 0.12 | 76 | 1013.2 |
| 20260507173506 | 56 | 15 | 0.0 | 2.0 | 0.00 | 0.18 | 0.12 | 75 | 1013.2 |
| 20260507173017 | 56 | 35 | 0.0 | 2.0 | 0.00 | 0.18 | 0.12 | 75 | 1013.2 |
| 20260507172504 | 56 | 360 | 0.0 | 3.0 | 0.00 | 0.18 | 0.12 | 77 | 1013.2 |
| 20260507172005 | 55 | 333 | 0.0 | 3.0 | 0.00 | 0.18 | 0.12 | 77 | 1013.2 |
| 20260507171521 | 55 | 4 | 0.0 | 2.0 | 0.00 | 0.18 | 0.12 | 77 | 1013.2 |
| 20260507171011 | 54 | 345 | 1.0 | 2.0 | 0.00 | 0.19 | 0.12 | 75 | 1013.2 |
| 20260507170510 | 55 | 6 | 0.0 | 2.0 | 0.00 | 0.20 | 0.12 | 75 | 1013.2 |
| 20260507170027 | 55 | 352 | 0.0 | 2.0 | 0.00 | 0.20 | 0.12 | 76 | 1013.2 |
| 20260507165512 | 55 | 23 | 0.0 | 2.0 | 0.00 | 0.20 | 0.12 | 76 | 1013.2 |
| 20260507165010 | 55 | 353 | 1.0 | 3.0 | 0.00 | 0.20 | 0.12 | 74 | 1013.2 |
| 20260507164508 | 56 | 56 | 1.0 | 3.0 | 0.00 | 0.20 | 0.12 | 72 | 1013.2 |
| 20260507164006 | 56 | 1 | 0.0 | 2.0 | 0.00 | 0.20 | 0.12 | 73 | 1013.2 |
| 20260507163504 | 56 | 89 | 0.0 | 1.0 | 0.00 | 0.20 | 0.12 | 73 | 1013.2 |
| 20260507163013 | 56 | 89 | 0.0 | 2.0 | 0.00 | 0.20 | 0.12 | 72 | 1013.1 |
| 20260507162503 | 56 | 31 | 0.0 | 2.0 | 0.00 | 0.20 | 0.12 | 72 | 1013.1 |
| 20260507162006 | 56 | 7 | 0.0 | 2.0 | 0.00 | 0.20 | 0.12 | 73 | 1013.1 |
| 20260507161516 | 57 | 29 | 0.0 | 2.0 | 0.00 | 0.20 | 0.12 | 73 | 1013.2 |
| 20260507161008 | 57 | 4 | 0.0 | 2.0 | 0.00 | 0.20 | 0.12 | 73 | 1013.1 |
| 20260507160507 | 57 | 5 | 0.0 | 2.0 | 0.00 | 0.20 | 0.12 | 76 | 1013.1 |
| 20260507160022 | 57 | 67 | 0.0 | 2.0 | 0.00 | 0.20 | 0.12 | 76 | 1013.2 |
| 20260507155509 | 57 | 77 | 0.0 | 1.0 | 0.00 | 0.20 | 0.12 | 76 | 1013.2 |
| 20260507155014 | 56 | 341 | 0.0 | 1.0 | 0.00 | 0.20 | 0.12 | 76 | 1013.2 |
| 20260507154528 | 56 | 330 | 0.0 | 1.0 | 0.00 | 0.20 | 0.12 | 77 | 1013.1 |
| 20260507154008 | 56 | 305 | 0.0 | 1.0 | 0.00 | 0.20 | 0.12 | 79 | 1013.2 |
| 20260507153508 | 56 | 29 | 0.0 | 2.0 | 0.00 | 0.20 | 0.12 | 81 | 1013.2 |
| 20260507153025 | 56 | 341 | 0.0 | 2.0 | 0.00 | 0.20 | 0.12 | 81 | 1013.2 |
| 20260507152504 | 55 | 269 | 0.0 | 3.0 | 0.00 | 0.20 | 0.12 | 78 | 1013.3 |
| 20260507152006 | 55 | 313 | 0.0 | 3.0 | 0.00 | 0.20 | 0.12 | 78 | 1013.3 |
| 20260507151516 | 56 | 43 | 0.0 | 3.0 | 0.00 | 0.20 | 0.12 | 81 | 1013.4 |
| 20260507151008 | 55 | 89 | 0.0 | 3.0 | 0.00 | 0.20 | 0.12 | 83 | 1013.5 |
| 20260507150507 | 55 | 18 | 0.0 | 2.0 | 0.00 | 0.20 | 0.12 | 82 | 1013.5 |
| 20260507150019 | 55 | 51 | 1.0 | 3.0 | 0.00 | 0.20 | 0.12 | 81 | 1013.5 |
| 20260507145509 | 55 | 349 | 1.0 | 3.0 | 0.00 | 0.20 | 0.12 | 82 | 1013.6 |
| 20260507145006 | 55 | 326 | 0.0 | 2.0 | 0.00 | 0.20 | 0.12 | 84 | 1013.6 |
| 20260507144527 | 55 | 28 | 1.0 | 2.0 | 0.00 | 0.21 | 0.12 | 82 | 1013.7 |
| 20260507144007 | 55 | 214 | 0.0 | 2.0 | 0.00 | 0.21 | 0.12 | 77 | 1013.8 |
| 20260507143510 | 55 | 214 | 0.0 | 2.0 | 0.00 | 0.21 | 0.12 | 77 | 1013.8 |
| 20260507143027 | 55 | 285 | 1.0 | 2.0 | 0.00 | 0.21 | 0.12 | 75 | 1013.8 |
| 20260507142508 | 55 | 216 | 0.0 | 3.0 | 0.00 | 0.21 | 0.12 | 78 | 1013.9 |
| 20260507142007 | 54 | 115 | 0.0 | 3.0 | 0.00 | 0.21 | 0.12 | 79 | 1014.0 |
| 20260507141527 | 55 | 131 | 1.0 | 3.0 | 0.00 | 0.21 | 0.12 | 79 | 1014.0 |
| 20260507141013 | 55 | 162 | 1.0 | 3.0 | 0.00 | 0.21 | 0.12 | 81 | 1014.0 |
| 20260507140504 | 54 | 131 | 1.0 | 3.0 | 0.00 | 0.21 | 0.12 | 80 | 1014.0 |
| 20260507140016 | 54 | 131 | 0.0 | 2.0 | 0.00 | 0.21 | 0.12 | 80 | 1014.1 |
| 20260507135512 | 54 | 153 | 0.0 | 2.0 | 0.00 | 0.21 | 0.12 | 82 | 1014.1 |
| 20260507135007 | 54 | 165 | 0.0 | 4.0 | 0.00 | 0.21 | 0.12 | 83 | 1014.1 |
| 20260507134520 | 54 | 120 | 0.0 | 5.0 | 0.00 | 0.21 | 0.12 | 82 | 1014.1 |
| 20260507134009 | 54 | 126 | 2.0 | 7.0 | 0.00 | 0.21 | 0.12 | 81 | 1014.2 |
| 20260507133509 | 55 | 129 | 4.0 | 7.0 | 0.00 | 0.20 | 0.11 | 77 | 1014.2 |
| 20260507133024 | 56 | 97 | 1.0 | 2.0 | 0.00 | 0.20 | 0.11 | 80 | 1014.1 |
| 20260507132508 | 56 | 46 | 0.0 | 3.0 | 0.00 | 0.20 | 0.11 | 77 | 1014.1 |
| 20260507132011 | 55 | 353 | 1.0 | 3.0 | 0.00 | 0.20 | 0.11 | 77 | 1014.2 |
| 20260507131529 | 56 | 262 | 0.0 | 3.0 | 0.00 | 0.20 | 0.11 | 76 | 1014.3 |
| 20260507131009 | 56 | 84 | 0.0 | 2.0 | 0.00 | 0.20 | 0.11 | 76 | 1014.2 |
| 20260507130508 | 56 | 146 | 0.0 | 1.0 | 0.00 | 0.20 | 0.11 | 78 | 1014.3 |
| 20260507130052 | 55 | 290 | 0.0 | 2.0 | 0.00 | 0.20 | 0.11 | 78 | 1014.2 |
| 20260507125510 | 54 | 103 | 1.0 | 2.0 | 0.00 | 0.20 | 0.11 | 81 | 1014.3 |
| 20260507125008 | 54 | 58 | 0.0 | 2.0 | 0.00 | 0.21 | 0.11 | 85 | 1014.3 |
| 20260507124517 | 53 | 112 | 0.0 | 1.0 | 0.00 | 0.21 | 0.11 | 87 | 1014.4 |
| 20260507124007 | 53 | 117 | 0.0 | 1.0 | 0.00 | 0.22 | 0.11 | 86 | 1014.5 |
| 20260507123509 | 53 | 117 | 0.0 | 1.0 | 0.00 | 0.21 | 0.11 | 86 | 1014.5 |
| 20260507123003 | 52 | 120 | 0.0 | 2.0 | 0.00 | 0.21 | 0.11 | 83 | 1014.5 |
| 20260507122502 | 52 | 99 | 1.0 | 2.0 | 0.00 | 0.21 | 0.11 | 83 | 1014.5 |
| 20260507122004 | 52 | 93 | 0.0 | 2.0 | 0.00 | 0.21 | 0.11 | 85 | 1014.5 |
| 20260507121503 | 51 | 95 | 1.0 | 2.0 | 0.00 | 0.21 | 0.11 | 82 | 1014.5 |
| 20260507121003 | 51 | 68 | 0.0 | 3.0 | 0.00 | 0.21 | 0.11 | 80 | 1014.5 |
| 20260507120505 | 51 | 99 | 1.0 | 3.0 | 0.00 | 0.21 | 0.11 | 82 | 1014.5 |
| 20260507120005 | 51 | 108 | 1.0 | 3.0 | 0.00 | 0.21 | 0.11 | 84 | 1014.5 |
| 20260507115503 | 51 | 126 | 2.0 | 3.0 | 0.04 | 0.21 | 0.11 | 82 | 1014.6 |
| 20260507115002 | 52 | 113 | 0.0 | 1.0 | 0.08 | 0.21 | 0.11 | 85 | 1014.6 |
| 20260507114503 | 51 | 332 | 0.0 | 1.0 | 0.11 | 0.21 | 0.11 | 84 | 1014.6 |
| 20260507114003 | 51 | 331 | 0.0 | 3.0 | 0.11 | 0.21 | 0.11 | 86 | 1014.6 |
| 20260507113503 | 50 | 7 | 0.0 | 3.0 | 0.11 | 0.21 | 0.11 | 87 | 1014.6 |
| 20260507113003 | 50 | 311 | 1.0 | 3.0 | 0.11 | 0.21 | 0.11 | 86 | 1014.6 |
| 20260507112503 | 50 | 52 | 0.0 | 3.0 | 0.11 | 0.21 | 0.11 | 87 | 1014.6 |
| 20260507112003 | 50 | 30 | 0.0 | 3.0 | 0.11 | 0.22 | 0.11 | 88 | 1014.7 |
| 20260507111507 | 51 | 333 | 0.0 | 3.0 | 0.11 | 0.22 | 0.11 | 87 | 1014.6 |
| 20260507111002 | 51 | 8 | 1.0 | 3.0 | 0.11 | 0.22 | 0.11 | 86 | 1014.7 |
| 20260507110503 | 51 | 20 | 1.0 | 3.0 | 0.11 | 0.22 | 0.11 | 84 | 1014.8 |
| 20260507110003 | 51 | 34 | 0.0 | 2.0 | 0.10 | 0.21 | 0.10 | 85 | 1014.9 |
| 20260507105502 | 52 | 344 | 0.0 | 2.0 | 0.06 | 0.17 | 0.06 | 83 | 1014.8 |
| 20260507105003 | 53 | 326 | 0.0 | 3.0 | 0.02 | 0.13 | 0.02 | 80 | 1014.8 |
| 20260507104504 | 53 | 123 | 0.0 | 3.0 | 0.00 | 0.11 | 0.00 | 81 | 1014.8 |
| 20260507104003 | 54 | 122 | 0.0 | 2.0 | 0.00 | 0.11 | 0.00 | 79 | 1014.7 |
| 20260507103503 | 54 | 110 | 0.0 | 3.0 | 0.00 | 0.11 | 0.00 | 78 | 1014.6 |
| 20260507103003 | 55 | 76 | 1.0 | 3.0 | 0.00 | 0.11 | 0.00 | 80 | 1014.6 |
| 20260507102502 | 55 | 151 | 0.0 | 2.0 | 0.00 | 0.11 | 0.00 | 78 | 1014.7 |
| 20260507102002 | 56 | 18 | 1.0 | 2.0 | 0.00 | 0.11 | 0.00 | 76 | 1014.7 |
| 20260507101504 | 56 | 192 | 0.0 | 2.0 | 0.00 | 0.11 | 0.00 | 77 | 1014.6 |
| 20260507101002 | 56 | 18 | 0.0 | 2.0 | 0.00 | 0.11 | 0.00 | 78 | 1014.6 |
| 20260507100504 | 56 | 127 | 0.0 | 2.0 | 0.00 | 0.11 | 0.00 | 77 | 1014.6 |
| 20260507100004 | 56 | 137 | 0.0 | 3.0 | 0.00 | 0.11 | 0.00 | 78 | 1014.6 |
| 20260507095504 | 55 | 263 | 1.0 | 3.0 | 0.00 | 0.11 | 0.00 | 75 | 1014.7 |
| 20260507095003 | 55 | 207 | 1.0 | 3.0 | 0.00 | 0.11 | 0.00 | 78 | 1014.7 |
| 20260507094504 | 55 | 122 | 0.0 | 4.0 | 0.00 | 0.11 | 0.00 | 78 | 1014.6 |
| 20260507094003 | 55 | 131 | 1.0 | 5.0 | 0.00 | 0.11 | 0.00 | 81 | 1014.6 |
| 20260507093503 | 54 | 121 | 2.0 | 5.0 | 0.00 | 0.11 | 0.00 | 79 | 1014.5 |
| 20260507093004 | 53 | 94 | 0.0 | 2.0 | 0.00 | 0.11 | 0.00 | 80 | 1014.5 |
| 20260507092504 | 53 | 143 | 1.0 | 4.0 | 0.00 | 0.11 | 0.00 | 81 | 1014.5 |
| 20260507092005 | 53 | 242 | 1.0 | 4.0 | 0.00 | 0.11 | 0.00 | 80 | 1014.4 |
| 20260507091507 | 53 | 103 | 0.0 | 2.0 | 0.00 | 0.11 | 0.00 | 82 | 1014.4 |
| 20260507091004 | 53 | 257 | 1.0 | 2.0 | 0.00 | 0.11 | 0.00 | 80 | 1014.4 |
| 20260507090507 | 53 | 159 | 0.0 | 2.0 | 0.00 | 0.11 | 0.00 | 80 | 1014.3 |
| 20260507090004 | 53 | 136 | 0.0 | 2.0 | 0.00 | 0.11 | 0.00 | 79 | 1014.3 |
| 20260507085503 | 53 | 290 | 0.0 | 2.0 | 0.00 | 0.11 | 0.00 | 81 | 1014.4 |
| 20260507085003 | 53 | 300 | 0.0 | 2.0 | 0.00 | 0.11 | 0.00 | 80 | 1014.4 |
| 20260507084504 | 53 | 194 | 0.0 | 2.0 | 0.00 | 0.11 | 0.00 | 81 | 1014.3 |
| 20260507084003 | 53 | 150 | 0.0 | 2.0 | 0.00 | 0.11 | 0.00 | 82 | 1014.4 |
| 20260507083507 | 53 | 193 | 0.0 | 2.0 | 0.00 | 0.11 | 0.00 | 80 | 1014.4 |
| 20260507083004 | 53 | 155 | 0.0 | 2.0 | 0.00 | 0.11 | 0.00 | 81 | 1014.3 |
| 20260507082503 | 53 | 158 | 0.0 | 2.0 | 0.00 | 0.11 | 0.00 | 82 | 1014.4 |
| 20260507082004 | 52 | 143 | 0.0 | 1.0 | 0.00 | 0.11 | 0.00 | 82 | 1014.3 |
| 20260507081505 | 52 | 149 | 0.0 | 1.0 | 0.00 | 0.11 | 0.00 | 83 | 1014.3 |
| 20260507081003 | 52 | 154 | 0.0 | 1.0 | 0.00 | 0.11 | 0.00 | 83 | 1014.3 |
| 20260507080503 | 52 | 143 | 0.0 | 1.0 | 0.00 | 0.11 | 0.00 | 84 | 1014.3 |
| 20260507080005 | 51 | 143 | 0.0 | 1.0 | 0.00 | 0.11 | 0.00 | 83 | 1014.3 |
| 20260507075503 | 51 | 142 | 0.0 | 1.0 | 0.00 | 0.11 | 0.00 | 86 | 1014.3 |
| 20260507075003 | 51 | 143 | 0.0 | 1.0 | 0.00 | 0.11 | 0.00 | 87 | 1014.3 |
| 20260507074506 | 50 | 143 | 0.0 | 1.0 | 0.00 | 0.11 | 0.00 | 88 | 1014.2 |
| 20260507074003 | 50 | 143 | 0.0 | 1.0 | 0.00 | 0.11 | 0.00 | 90 | 1014.2 |
| 20260507073503 | 49 | 143 | 0.0 | 1.0 | 0.00 | 0.11 | 0.00 | 89 | 1014.1 |
| 20260507073003 | 49 | 143 | 0.0 | 1.0 | 0.00 | 0.11 | 0.00 | 90 | 1014.1 |
| 20260507072504 | 49 | 143 | 0.0 | 1.0 | 0.00 | 0.11 | 0.00 | 90 | 1014.1 |
| 20260507072002 | 49 | 143 | 0.0 | 1.0 | 0.00 | 0.11 | 0.00 | 90 | 1014.1 |
| 20260507071506 | 49 | 143 | 0.0 | 1.0 | 0.00 | 0.11 | 0.00 | 90 | 1014.1 |
| 20260507071003 | 49 | 143 | 0.0 | 1.0 | 0.00 | 0.11 | 0.00 | 91 | 1014.1 |
| 20260507070503 | 48 | 143 | 0.0 | 1.0 | 0.00 | 0.11 | 0.00 | 91 | 1014.1 |
| 20260507070008 | 48 | 143 | 0.0 | 1.0 | 0.00 | 0.11 | 0.00 | 91 | 1014.1 |
| 20260507065503 | 48 | 143 | 0.0 | 1.0 | 0.00 | 0.11 | 0.00 | 91 | 1014.1 |
| 20260507065004 | 48 | 143 | 0.0 | 1.0 | 0.00 | 0.11 | 0.00 | 92 | 1014.1 |
| 20260507064508 | 48 | 143 | 0.0 | 1.0 | 0.00 | 0.11 | 0.00 | 92 | 1014.0 |
| 20260507064003 | 48 | 143 | 0.0 | 1.0 | 0.00 | 0.11 | 0.00 | 92 | 1014.0 |
| 20260507063504 | 48 | 142 | 0.0 | 1.0 | 0.00 | 0.11 | 0.00 | 92 | 1013.9 |
| 20260507063005 | 47 | 142 | 0.0 | 1.0 | 0.00 | 0.11 | 0.00 | 93 | 1013.8 |
| 20260507062506 | 47 | 142 | 0.0 | 1.0 | 0.00 | 0.11 | 0.00 | 93 | 1013.9 |
| 20260507062002 | 47 | 142 | 0.0 | 1.0 | 0.00 | 0.11 | 0.00 | 93 | 1013.8 |
| 20260507061527 | 47 | 142 | 0.0 | 1.0 | 0.00 | 0.11 | 0.00 | 93 | 1013.8 |
| 20260507061008 | 46 | 142 | 0.0 | 1.0 | 0.00 | 0.11 | 0.00 | 93 | 1013.7 |
| 20260507060506 | 46 | 142 | 0.0 | 1.0 | 0.00 | 0.11 | 0.00 | 92 | 1013.7 |
| 20260507060017 | 46 | 141 | 0.0 | 1.0 | 0.00 | 0.11 | 0.00 | 93 | 1013.8 |
| 20260507055503 | 46 | 271 | 0.0 | 0.0 | 0.00 | 0.11 | 0.00 | 93 | 1013.8 |
| 20260507055003 | 46 | 271 | 0.0 | 0.0 | 0.00 | 0.11 | 0.00 | 93 | 1013.8 |
| 20260507054510 | 46 | 271 | 0.0 | 0.0 | 0.00 | 0.13 | 0.00 | 93 | 1013.8 |
| 20260507054004 | 46 | 271 | 0.0 | 1.0 | 0.00 | 0.14 | 0.00 | 93 | 1013.7 |
| 20260507053505 | 46 | 271 | 0.0 | 1.0 | 0.00 | 0.14 | 0.00 | 93 | 1013.6 |
| 20260507053012 | 46 | 271 | 0.0 | 1.0 | 0.00 | 0.15 | 0.00 | 93 | 1013.6 |
| 20260507052504 | 46 | 271 | 0.0 | 1.0 | 0.00 | 0.16 | 0.00 | 93 | 1013.6 |
| 20260507052005 | 46 | 271 | 0.0 | 1.0 | 0.00 | 0.17 | 0.00 | 93 | 1013.6 |
| 20260507051509 | 46 | 275 | 0.0 | 0.0 | 0.00 | 0.17 | 0.00 | 94 | 1013.5 |
| 20260507051004 | 45 | 275 | 0.0 | 0.0 | 0.00 | 0.17 | 0.00 | 94 | 1013.5 |
| 20260507050504 | 45 | 275 | 0.0 | 0.0 | 0.00 | 0.17 | 0.00 | 94 | 1013.5 |
| 20260507050011 | 45 | 275 | 0.0 | 0.0 | 0.00 | 0.18 | 0.00 | 94 | 1013.5 |
| 20260507045505 | 45 | 275 | 0.0 | 0.0 | 0.00 | 0.18 | 0.00 | 94 | 1013.5 |
| 20260507045006 | 45 | 275 | 0.0 | 0.0 | 0.00 | 0.19 | 0.00 | 94 | 1013.5 |
| 20260507044509 | 45 | 275 | 0.0 | 0.0 | 0.00 | 0.19 | 0.00 | 94 | 1013.4 |
| 20260507044005 | 45 | 275 | 0.0 | 0.0 | 0.00 | 0.19 | 0.00 | 94 | 1013.4 |
| 20260507043505 | 45 | 275 | 0.0 | 0.0 | 0.00 | 0.19 | 0.00 | 94 | 1013.3 |
| 20260507043014 | 45 | 275 | 0.0 | 0.0 | 0.00 | 0.20 | 0.00 | 94 | 1013.4 |
| 20260507042506 | 45 | 275 | 0.0 | 0.0 | 0.00 | 0.20 | 0.00 | 94 | 1013.4 |
| 20260507042005 | 45 | 275 | 0.0 | 0.0 | 0.00 | 0.20 | 0.00 | 93 | 1013.4 |
| 20260507041526 | 45 | 275 | 0.0 | 0.0 | 0.00 | 0.20 | 0.00 | 93 | 1013.4 |
| 20260507041005 | 45 | 275 | 0.0 | 0.0 | 0.00 | 0.20 | 0.00 | 93 | 1013.4 |
| 20260507040506 | 45 | 275 | 0.0 | 0.0 | 0.00 | 0.20 | 0.00 | 93 | 1013.4 |
| 20260507040011 | 45 | 275 | 0.0 | 0.0 | 0.00 | 0.20 | 0.00 | 93 | 1013.4 |
| 20260507035507 | 45 | 275 | 0.0 | 0.0 | 0.00 | 0.20 | 0.00 | 93 | 1013.4 |
| 20260507035005 | 45 | 275 | 0.0 | 0.0 | 0.00 | 0.20 | 0.00 | 93 | 1013.4 |
| 20260507034515 | 45 | 275 | 0.0 | 0.0 | 0.00 | 0.20 | 0.00 | 93 | 1013.3 |
| 20260507034005 | 45 | 275 | 0.0 | 0.0 | 0.00 | 0.20 | 0.00 | 93 | 1013.4 |
| 20260507033505 | 45 | 275 | 0.0 | 0.0 | 0.00 | 0.21 | 0.00 | 93 | 1013.4 |
| 20260507033014 | 45 | 275 | 0.0 | 1.0 | 0.00 | 0.21 | 0.00 | 93 | 1013.4 |
| 20260507032501 | 45 | 275 | 0.0 | 1.0 | 0.00 | 0.21 | 0.00 | 93 | 1013.3 |
| 20260507032001 | 45 | 274 | 0.0 | 1.0 | 0.00 | 0.21 | 0.00 | 93 | 1013.3 |
| 20260507031503 | 45 | 280 | 0.0 | 1.0 | 0.00 | 0.21 | 0.00 | 93 | 1013.4 |
| 20260507031002 | 45 | 281 | 0.0 | 1.0 | 0.00 | 0.21 | 0.00 | 93 | 1013.3 |
| 20260507030506 | 45 | 275 | 0.0 | 1.0 | 0.00 | 0.21 | 0.00 | 93 | 1013.3 |
| 20260507030003 | 45 | 257 | 0.0 | 1.0 | 0.00 | 0.21 | 0.00 | 93 | 1013.3 |
| 20260507025503 | 45 | 255 | 0.0 | 1.0 | 0.00 | 0.21 | 0.00 | 93 | 1013.4 |
| 20260507025002 | 45 | 255 | 0.0 | 1.0 | 0.00 | 0.21 | 0.00 | 94 | 1013.4 |
| 20260507024506 | 45 | 225 | 0.0 | 1.0 | 0.00 | 0.21 | 0.00 | 94 | 1013.3 |
| 20260507024005 | 45 | 179 | 0.0 | 0.0 | 0.00 | 0.22 | 0.00 | 94 | 1013.4 |
| 20260507023507 | 45 | 179 | 0.0 | 0.0 | 0.00 | 0.22 | 0.00 | 93 | 1013.3 |
| 20260507023015 | 45 | 179 | 0.0 | 0.0 | 0.00 | 0.23 | 0.00 | 93 | 1013.3 |
| 20260507022507 | 45 | 179 | 0.0 | 0.0 | 0.00 | 0.25 | 0.00 | 93 | 1013.3 |
| 20260507022010 | 45 | 179 | 0.0 | 0.0 | 0.00 | 0.25 | 0.00 | 93 | 1013.2 |
| 20260507021518 | 45 | 179 | 0.0 | 0.0 | 0.00 | 0.25 | 0.00 | 93 | 1013.2 |
| 20260507021007 | 45 | 179 | 0.0 | 0.0 | 0.00 | 0.25 | 0.00 | 93 | 1013.1 |
| 20260507020503 | 45 | 179 | 0.0 | 1.0 | 0.00 | 0.25 | 0.00 | 93 | 1013.0 |
| 20260507020003 | 45 | 179 | 0.0 | 1.0 | 0.00 | 0.25 | 0.00 | 93 | 1013.0 |
| 20260507015504 | 45 | 257 | 0.0 | 1.0 | 0.00 | 0.25 | 0.00 | 93 | 1013.1 |
| 20260507015002 | 45 | 258 | 0.0 | 1.0 | 0.00 | 0.25 | 0.00 | 93 | 1013.1 |
| 20260507014508 | 45 | 244 | 0.0 | 1.0 | 0.00 | 0.25 | 0.00 | 93 | 1013.1 |
| 20260507014003 | 45 | 252 | 0.0 | 1.0 | 0.00 | 0.25 | 0.00 | 93 | 1013.1 |
| 20260507013502 | 45 | 252 | 0.0 | 1.0 | 0.00 | 0.26 | 0.00 | 93 | 1013.0 |
| 20260507013016 | 45 | 272 | 0.0 | 1.0 | 0.00 | 0.26 | 0.00 | 93 | 1013.1 |
| 20260507012507 | 45 | 259 | 0.0 | 1.0 | 0.00 | 0.26 | 0.00 | 93 | 1013.0 |
| 20260507012006 | 45 | 248 | 0.0 | 1.0 | 0.00 | 0.26 | 0.00 | 93 | 1013.1 |
| 20260507011519 | 45 | 271 | 0.0 | 1.0 | 0.00 | 0.26 | 0.00 | 93 | 1013.1 |
| 20260507011005 | 45 | 242 | 0.0 | 1.0 | 0.00 | 0.26 | 0.00 | 93 | 1013.1 |
| 20260507010507 | 45 | 255 | 0.0 | 1.0 | 0.00 | 0.26 | 0.00 | 94 | 1013.1 |
| 20260507010018 | 45 | 159 | 0.0 | 1.0 | 0.00 | 0.26 | 0.00 | 94 | 1013.1 |
| 20260507005506 | 45 | 151 | 0.0 | 1.0 | 0.00 | 0.26 | 0.00 | 94 | 1013.1 |
| 20260507005007 | 45 | 245 | 0.0 | 1.0 | 0.00 | 0.26 | 0.00 | 94 | 1013.1 |
| 20260507004512 | 45 | 199 | 0.0 | 1.0 | 0.00 | 0.26 | 0.00 | 94 | 1013.1 |
| 20260507004003 | 45 | 261 | 0.0 | 1.0 | 0.00 | 0.26 | 0.00 | 94 | 1013.2 |
| 20260507003503 | 45 | 142 | 0.0 | 1.0 | 0.00 | 0.26 | 0.00 | 94 | 1013.2 |
| 20260507003004 | 45 | 179 | 0.0 | 1.0 | 0.00 | 0.26 | 0.00 | 94 | 1013.2 |
| 20260507002502 | 45 | 203 | 0.0 | 1.0 | 0.00 | 0.27 | 0.00 | 94 | 1013.3 |
| 20260507002003 | 45 | 236 | 0.0 | 1.0 | 0.00 | 0.27 | 0.00 | 94 | 1013.3 |
| 20260507001512 | 45 | 132 | 0.0 | 1.0 | 0.00 | 0.28 | 0.00 | 94 | 1013.3 |
| 20260507001005 | 45 | 132 | 0.0 | 1.0 | 0.00 | 0.29 | 0.00 | 94 | 1013.3 |
| 20260507000505 | 45 | 120 | 0.0 | 1.0 | 0.00 | 0.29 | 0.00 | 94 | 1013.4 |
| 20260507000022 | 45 | 144 | 0.0 | 1.0 | 0.00 | 0.30 | 0.00 | 94 | 1013.4 |
| 20260506235507 | 45 | 144 | 0.0 | 1.0 | 0.00 | 0.31 | 0.00 | 94 | 1013.3 |
| 20260506235006 | 45 | 147 | 0.0 | 1.0 | 0.00 | 0.32 | 0.00 | 94 | 1013.4 |